スワン彗星

C/2006 M4 ( SWAN )

English version
Home page
Updated on February 10, 2013

---------------------------------------------------------------------

・ プロフィール

発見日 2006年6月20日
発見光度 12等
発見者 R. D. Matson (Irvine, CA), M. Mattiazzo (Adelaide, S. Australia)

・ 写真集

・ 軌道要素

Epoch 2006 Sept. 22.0 TT = JDT 2454000.5
T 2006 Sept. 28.72838 TT                                MPC
q   0.7830077            (2000.0)            P               Q
z  -0.0002383      Peri.   62.59398     -0.22208969     +0.84760246
 +/-0.0000013      Node   148.72659     +0.15020016     -0.45862196
e   1.0001866      Incl.  111.82332     +0.96338781     +0.26690068
From 1138 observations 2006 July 12-2007 Sept. 18, mean residual 0".6.

・ 星図

・ 光度変化

        m1 = 6.8 + 5 logΔ + 12.0 log r(t - 10)  [  ,26]  (              〜2006年10月24日)
        m1 = 5.2 + 5 logΔ + 27.5 log r          [26,40]  (2006年10月24日〜2006年11月 7日)
        m1 = 6.4 + 5 logΔ + 12.0 log r(t - 10)  [40,95]  (2006年11月 7日〜2007年 1月 1日)
        m1 = 5.2 + 5 logΔ + 15.0 log r          [95,  ]  (2007年 1月 1日〜              )

---------------------------------------------------------------------

軌道要素はM.P.E.C. 2013-A29に掲載されたものです。
星図は StellaNavigator Ver.2.0 for Windows (アストロアーツ 編著 / アスキー出版局刊) で作成したものです。
光度グラフはComet for Windowsで作成したものです。

---------------------------------------------------------------------

Copyright(C) Seiichi Yoshida (comet@aerith.net). All rights reserved.